Location: Saint Louis
(38.6272°N, 90.1978°W)
Time: 07:31:53
(UTC-05:00)

ISS - Pass Details

Date: 06 August 2013
Orbit: 402 x 404 km, 51.6° (Epoch: 26 May)

Event Time Altitude Azimuth Distance (km) Brightness Sun altitude
Exits shadow 04:58:15 15° 195° (SSW) 1,279 -1.2 -12.7°
Drops below altitude 10° 04:59:10 10° 182° (S) 1,527 -0.7 -12.5°
Sets 05:01:39 0° 164° (SSE) 2,385 0.4 -12.1°
